This is the latest recevied weather packets stored in our database for station/object W0DXV. If no packets are shown the sender has not sent any weather packets the latest 10 day(s).
| Time | Temp. | Humidity | Pressure | Rain* | Wind** | Luminosity | Snow |
|---|---|---|---|---|---|---|---|
| 1777839401 | 20° C | 30% | 1012.9 hPa | 0 mm | - | 522 W/m² | - |
| 1777839098 | 20° C | 32% | 1013.1 hPa | 0 mm | - | 534 W/m² | - |
| 1777838793 | 20° C | 32% | 1013.2 hPa | 0 mm | - | 546 W/m² | - |
| 1777838490 | 20° C | 32% | 1013 hPa | 0 mm | - | 558 W/m² | - |
| 1777838187 | 20° C | 33% | 1013.2 hPa | 0 mm | - | 571 W/m² | - |
| 1777837884 | 20° C | 33% | 1013.3 hPa | 0 mm | - | 584 W/m² | - |
| 1777837581 | 19.44° C | 30% | 1013.4 hPa | 0 mm | - | 595 W/m² | - |
| 1777837276 | 19.44° C | 32% | 1013.6 hPa | 0 mm | - | 604 W/m² | - |
| 1777836974 | 20° C | 31% | 1013.4 hPa | 0 mm | - | 616 W/m² | - |
| 1777836669 | 19.44° C | 30% | 1013.4 hPa | 0 mm | - | 627 W/m² | - |
| 1777836365 | 19.44° C | 33% | 1013.7 hPa | 0 mm | - | 639 W/m² | - |
| 1777836061 | 19.44° C | 31% | 1013.6 hPa | 0 mm | - | 645 W/m² | - |
| 1777835758 | 18.89° C | 31% | 1013.9 hPa | 0 mm | - | 660 W/m² | - |
| 1777835454 | 18.89° C | 32% | 1013.8 hPa | 0 mm | - | 668 W/m² | - |
| 1777835151 | 19.44° C | 32% | 1014.1 hPa | 0 mm | - | 678 W/m² | - |
| 1777834849 | 18.89° C | 30% | 1013.9 hPa | 0 mm | - | 686 W/m² | - |
| 1777834545 | 18.89° C | 30% | 1014 hPa | 0 mm | - | 694 W/m² | - |
| 1777834245 | 18.89° C | 30% | 1014.3 hPa | 0 mm | - | 702 W/m² | - |
| 1777833941 | 18.89° C | 30% | 1014.3 hPa | 0 mm | - | 711 W/m² | - |
| 1777833638 | 18.89° C | 30% | 1014.2 hPa | 0 mm | - | 716 W/m² | - |
| 1777833334 | 18.33° C | 29% | 1014.4 hPa | 0 mm | - | 722 W/m² | - |
| 1777833031 | 18.33° C | 31% | 1014.3 hPa | 0 mm | - | 727 W/m² | - |
| 1777832730 | 18.33° C | 30% | 1014.6 hPa | 0 mm | - | 735 W/m² | - |
| 1777832428 | 18.89° C | 29% | 1014.7 hPa | 0 mm | - | 740 W/m² | - |
| 1777832124 | 18.33° C | 30% | 1014.8 hPa | 0 mm | - | 747 W/m² | - |
* Rain latest hour (hover to see other rain measurements)
** Current wind speed in m/s (hover to see current wind gust speed)